Regional Weather Roundup
Issued by NWS Cleveland, OH

Home | Current Version | Previous Version | Text Only | Print | Product List | Glossary Off
Versions: 1 2 3 4 5 6 7 8 9 10 11 12 13 14 15 16 17 18 19 20 21 22 23 24 25 26 27 28 29 30 31 32 33 34 35 36 37 38 39 40 41 42 43 44 45 46 47 48 49 50

000
ASUS41 KCLE 290412
RWRCLE
OHIO REGIONAL WEATHER ROUNDUP
NATIONAL WEATHER SERVICE WILMINGTON, OH
1200 AM EDT WED MAR 29 2017

NOTE: "FAIR" INDICATES FEW OR NO CLOUDS BELOW 12,000 FEET WITH NO
SIGNIFICANT WEATHER AND/OR OBSTRUCTIONS TO VISIBILITY.

OHZ001>008-015>018-024>027-034-035-043-044-290500-
   NORTHWEST OHIO

CITY           SKY/WX    TMP DP  RH WIND       PRES   REMARKS
DEFIANCE       FAIR      42  37  82 N7        30.21R
FINDLAY        FAIR      45  36  70 NE9       30.18R
TOLEDO EXPRESS FAIR      38  36  92 NE6       30.21R
TOLEDO EXEC    FAIR      39  36  89 E6        30.22R
LIMA           CLOUDY    45  42  89 NE5       30.18R
$$

OHZ009>014-019>023-028>033-038-089-290500-
   NORTHEAST OHIO

CITY           SKY/WX    TMP DP  RH WIND       PRES   REMARKS
CLE-HOPKINS    CLOUDY    40  34  79 N6        30.22R
CLE-LAKEFRONT  CLOUDY    38  35  89 W6        30.20R
CUY CO. ARPT   NOT AVBL
LORAIN-ELYRIA  CLOUDY    38  34  85 N7        30.20R
ASHTABULA      CLOUDY    39  38  96 NW6       30.16R
AKRON-CANTON   CLOUDY    42  39  89 NW6       30.15R FOG
WOOSTER        CLOUDY    40  37  89 NE6       30.18R
MANSFIELD      FAIR      36  33  89 N6        30.16S
YOUNGSTOWN     CLOUDY    41  40  96 NW8       30.14R FOG
$$

OHZ042-051>053-060>062-070>072-077>081-290500-
  SOUTHWEST OHIO

CITY           SKY/WX    TMP DP  RH WIND       PRES   REMARKS
CINC-COVINGTON CLOUDY    53  48  83 N8        30.14R
CINC-LUNKEN    CLOUDY    54  50  86 N7        30.15R
HAMILTON       CLOUDY    53  48  83 N8        30.16R
DAYTON         CLOUDY    48  43  82 NE8       30.16S
WRIGHT-PAT AFB CLOUDY    49  47  92 NE6       30.16R
DAYTON GENERAL CLOUDY    50  45  83 NE8       30.15R
WILMINGTON     CLOUDY    47  44  90 NE10      30.15R
$$

OHZ036-037-039>041-045>050-054>059-063>069-073>076-082>088-290500-
  CENTRAL AND SOUTHEAST OHIO

CITY           SKY/WX    TMP DP  RH WIND       PRES   REMARKS
COLUMBUS       CLOUDY    46  40  79 N12       30.16R
OSU AIRPORT    CLOUDY    44  40  85 N10       30.17R
BOLTON FIELD   CLOUDY    45  40  85 N9        30.17R
RICKENBACK AFB CLOUDY    46  41  83 N10       30.16R
NEWARK         CLOUDY    45  39  79 N7        30.16R
MARION         FAIR      41  37  86 NE5       30.18S
LANCASTER      CLOUDY    49  42  77 NE9       30.16R
ZANESVILLE     CLOUDY    46  39  76 N8        30.15R
NEW PHILLY     CLOUDY    44  39  82 NW7       30.16R
$$




USA.gov is the U.S. government's official web portal to all federal, state and local government web resources and services.